Location: Peebles
(55.6412°N, 3.1714°W)
Time: 19:25:24
(UTC+00:00)

FENGYUN 1C DEB - Visible Passes

Search period start: 29 January 2023 00:00
Search period end: 08 February 2023 00:00
Orbit: 672 x 886 km, 97.5° (Epoch: 27 January)

Date Brightness Start Highest point End Pass type
(mag) Time Alt. Az. Time Alt. Az. Time Alt. Az.
29 Jan ? 06:16:49 10° NNE 06:22:06 36° E 06:27:17 10° SSE visible
29 Jan ? 17:40:42 10° SSE 17:46:01 78° ENE 17:51:39 10° NNW visible
29 Jan ? 19:21:52 10° SW 19:26:04 23° W 19:30:27 10° NW visible
30 Jan ? 05:44:40 10° NE 05:49:05 22° E 05:53:26 10° SE visible
30 Jan ? 07:23:23 10° NNE 07:29:10 85° WNW 07:34:51 10° SSW visible
30 Jan ? 18:48:05 10° SSW 18:53:02 38° W 18:58:16 10° NNW visible
31 Jan ? 05:13:10 10° NE 05:15:53 13° ENE 05:18:36 10° ESE visible
31 Jan ? 06:50:46 10° NNE 06:56:29 61° E 07:02:03 10° S visible
31 Jan ? 18:14:51 10° S 18:20:10 63° W 18:25:48 10° NNW visible
31 Jan ? 19:58:11 10° WSW 20:00:47 13° WNW 20:03:25 10° NW visible
01 Feb ? 06:18:18 10° NNE 06:23:37 37° E 06:28:49 10° SSE visible
01 Feb ? 17:42:04 10° SSE 17:47:29 81° ENE 17:53:10 10° NNW visible
01 Feb ? 19:23:21 10° SW 19:27:34 22° W 19:31:55 10° NW visible
02 Feb ? 05:46:05 10° NE 05:50:36 23° E 05:55:00 10° SE visible
02 Feb ? 18:49:31 10° SSW 18:54:31 37° W 18:59:45 10° NNW visible
03 Feb ? 05:14:30 10° NE 05:17:23 14° E 05:20:16 10° ESE visible
03 Feb ? 06:52:14 10° NNE 06:57:57 63° E 07:03:30 10° S visible
03 Feb ? 18:16:14 10° S 18:21:38 60° W 18:27:17 10° NNW visible
03 Feb ? 19:59:46 10° WSW 20:02:16 13° WNW 20:04:47 10° NW visible
04 Feb ? 06:19:45 10° NNE 06:25:06 39° E 06:30:17 10° SSE visible
04 Feb ? 17:43:25 10° SSE 17:48:54 84° ENE 17:54:38 10° NNW visible
04 Feb ? 19:24:50 10° SW 19:29:01 22° W 19:33:21 10° NW visible
05 Feb ? 05:47:31 10° NNE 05:52:04 24° E 05:56:30 10° SE visible
05 Feb ? 18:50:56 10° SSW 18:55:57 35° W 19:01:11 10° NNW visible
06 Feb ? 05:15:50 10° NE 05:18:51 14° E 05:21:50 10° ESE visible
06 Feb ? 06:53:40 10° NNE 06:59:23 66° E 07:04:53 10° S visible
06 Feb ? 18:17:36 10° S 18:23:02 58° W 18:28:43 10° NNW visible
06 Feb ? 20:01:21 10° WSW 20:03:42 13° WNW 20:06:06 10° NW visible
07 Feb ? 06:21:09 10° NNE 06:26:32 40° E 06:31:40 10° SSE visible
07 Feb ? 17:44:44 10° SSE 17:50:19 88° ENE 17:56:05 10° NNW visible
07 Feb ? 19:26:17 10° SW 19:30:27 21° W 19:34:43 10° NW visible
